| time (UTC) | temp C | wind direction | speed KPH | gust KPH | rain 1hr cm | rain 24hr cm | rain mn cm | humidity % | barometer mb |
| 20260502194912 | 15 | 176 | 8.0 | 8.0 | 0.00 | 0.00 | 0.00 | 51 | 1019.0 |
| 20260502193411 | 15 | 176 | 8.0 | 8.0 | 0.00 | 0.00 | 0.00 | 50 | 1019.0 |
| 20260502191911 | 16 | 152 | 8.0 | 8.0 | 0.00 | 0.00 | 0.00 | 42 | 1019.0 |
| 20260502190411 | 17 | 152 | 8.0 | 8.0 | 0.00 | 0.00 | 0.00 | 47 | 1019.0 |
| 20260502184910 | 17 | 152 | 8.0 | 8.0 | 0.00 | 0.00 | 0.00 | 47 | 1019.0 |
| 20260502183410 | 17 | 147 | 8.0 | 8.0 | 0.00 | 0.00 | 0.00 | 47 | 1019.0 |
| 20260502181909 | 18 | 130 | 8.0 | 9.7 | 0.00 | 0.00 | 0.00 | 37 | 1019.0 |
| 20260502180409 | 20 | 130 | 8.0 | 9.7 | 0.00 | 0.00 | 0.00 | 34 | 1019.0 |
| 20260502170408 | 22 | 112 | 8.0 | 11.3 | 0.00 | 0.00 | 0.00 | 28 | 1019.0 |
| 20260502163407 | 22 | 112 | 8.0 | 11.3 | 0.00 | 0.00 | 0.00 | 39 | 1019.0 |
| 20260502161906 | 23 | 88 | 8.0 | 11.3 | 0.00 | 0.00 | 0.00 | 27 | 1020.0 |
| 20260502160406 | 23 | 88 | 8.0 | 11.3 | 0.00 | 0.00 | 0.00 | 34 | 1020.0 |
| 20260502151905 | 24 | 79 | 8.0 | 8.0 | 0.00 | 0.00 | 0.00 | 24 | 1020.0 |
| 20260502150405 | 24 | 79 | 8.0 | 8.0 | 0.00 | 0.00 | 0.00 | 25 | 1021.0 |
| 20260502130402 | 23 | 63 | 6.4 | 8.0 | 0.00 | 0.00 | 0.00 | 31 | 1022.0 |
| 20260502123401 | 23 | 75 | 6.4 | 8.0 | 0.00 | 0.00 | 0.00 | 31 | 1022.0 |
| 20260502121901 | 23 | 74 | 4.8 | 8.0 | 0.00 | 0.00 | 0.00 | 28 | 1023.0 |
| 20260502120400 | 23 | 74 | 4.8 | 8.0 | 0.00 | 0.00 | 0.00 | 32 | 1023.0 |
| 20260502114900 | 23 | 74 | 4.8 | 8.0 | 0.00 | 0.00 | 0.00 | 32 | 1023.0 |
| 20260502113400 | 22 | 74 | 4.8 | 8.0 | 0.00 | 0.00 | 0.00 | 33 | 1023.0 |
| 20260502111859 | 22 | 80 | 4.8 | 8.0 | 0.00 | 0.00 | 0.00 | 31 | 1024.0 |
| 20260502110359 | 22 | 80 | 4.8 | 8.0 | 0.00 | 0.00 | 0.00 | 34 | 1023.0 |
| 20260502104858 | 22 | 80 | 4.8 | 8.0 | 0.00 | 0.00 | 0.00 | 34 | 1023.0 |
| 20260502103358 | 22 | 80 | 4.8 | 8.0 | 0.00 | 0.00 | 0.00 | 35 | 1023.0 |
| 20260502101858 | 21 | 93 | 4.8 | 6.4 | 0.00 | 0.00 | 0.00 | 34 | 1024.0 |
| 20260502100358 | 21 | 93 | 4.8 | 6.4 | 0.00 | 0.00 | 0.00 | 38 | 1024.0 |
| 20260502090356 | 20 | 102 | 4.8 | 6.4 | 0.00 | 0.00 | 0.00 | 40 | 1025.0 |
| 20260502070353 | 15 | 111 | 3.2 | 4.8 | 0.00 | 0.00 | 0.00 | 57 | 1025.0 |
| 20260502064853 | 14 | 111 | 3.2 | 4.8 | 0.00 | 0.00 | 0.00 | 62 | 1025.0 |
| 20260502063353 | 14 | 113 | 4.8 | 4.8 | 0.00 | 0.00 | 0.00 | 62 | 1025.0 |
| 20260502061852 | 12 | 122 | 3.2 | 4.8 | 0.00 | 0.00 | 0.00 | 65 | 1025.0 |
| 20260502060352 | 11 | 122 | 3.2 | 4.8 | 0.00 | 0.00 | 0.00 | 70 | 1026.0 |
| 20260502054851 | 11 | 122 | 3.2 | 4.8 | 0.00 | 0.00 | 0.00 | 70 | 1026.0 |
| 20260502053351 | 11 | 122 | 3.2 | 4.8 | 0.00 | 0.00 | 0.00 | 71 | 1026.0 |
| 20260502051851 | 8 | 144 | 3.2 | 3.2 | 0.00 | 0.00 | 0.00 | 75 | 1025.0 |
| 20260502050350 | 8 | 144 | 3.2 | 3.2 | 0.00 | 0.00 | 0.00 | 77 | 1026.0 |
| 20260502044850 | 8 | 144 | 3.2 | 3.2 | 0.00 | 0.00 | 0.00 | 77 | 1026.0 |
| 20260502043350 | 7 | 144 | 3.2 | 3.2 | 0.00 | 0.00 | 0.00 | 78 | 1026.0 |
| 20260502041849 | 6 | 155 | 3.2 | 3.2 | 0.00 | 0.00 | 0.00 | 79 | 1025.0 |
| 20260502040349 | 5 | 155 | 3.2 | 3.2 | 0.00 | 0.00 | 0.00 | 78 | 1025.0 |
| 20260502034849 | 6 | 155 | 3.2 | 3.2 | 0.00 | 0.00 | 0.00 | 80 | 1026.0 |
| 20260502033348 | 6 | 155 | 3.2 | 3.2 | 0.00 | 0.00 | 0.00 | 80 | 1026.0 |
| 20260502031848 | 5 | 160 | 3.2 | 3.2 | 0.00 | 0.00 | 0.00 | 78 | 1025.0 |
| 20260502030348 | 6 | 160 | 3.2 | 3.2 | 0.00 | 0.00 | 0.00 | 78 | 1025.0 |
| 20260502024847 | 6 | 160 | 3.2 | 3.2 | 0.00 | 0.00 | 0.00 | 79 | 1026.0 |
| 20260502023347 | 6 | 160 | 3.2 | 3.2 | 0.00 | 0.00 | 0.00 | 78 | 1026.0 |
| 20260502021847 | 6 | 159 | 3.2 | 3.2 | 0.00 | 0.00 | 0.00 | 77 | 1026.0 |
| 20260502020346 | 6 | 159 | 3.2 | 3.2 | 0.00 | 0.00 | 0.00 | 76 | 1026.0 |
| 20260502014846 | 6 | 159 | 3.2 | 3.2 | 0.00 | 0.00 | 0.00 | 77 | 1026.0 |
| 20260502013345 | 6 | 159 | 3.2 | 3.2 | 0.00 | 0.00 | 0.00 | 77 | 1026.0 |
| 20260502011845 | 7 | 160 | 3.2 | 3.2 | 0.00 | 0.00 | 0.00 | 76 | 1026.0 |
| 20260502010345 | 7 | 160 | 3.2 | 3.2 | 0.00 | 0.00 | 0.00 | 76 | 1026.0 |
| 20260502004844 | 7 | 156 | 3.2 | 3.2 | 0.00 | 0.00 | 0.00 | 76 | 1026.0 |
| 20260502003344 | 7 | 156 | 3.2 | 3.2 | 0.00 | 0.00 | 0.00 | 76 | 1026.0 |
| 20260502001844 | 7 | 165 | 3.2 | 3.2 | 0.00 | 0.00 | 0.00 | 72 | 1026.0 |
| 20260502000343 | 7 | 165 | 3.2 | 3.2 | 0.00 | 0.00 | 0.00 | 74 | 1027.0 |
| 20260501234843 | 7 | 165 | 3.2 | 3.2 | 0.00 | 0.00 | 0.00 | 74 | 1027.0 |
| 20260501233342 | 8 | 165 | 3.2 | 3.2 | 0.00 | 0.00 | 0.00 | 74 | 1027.0 |
| 20260501231842 | 8 | 165 | 4.8 | 4.8 | 0.00 | 0.00 | 0.00 | 70 | 1027.0 |
| 20260501230342 | 8 | 165 | 4.8 | 4.8 | 0.00 | 0.00 | 0.00 | 70 | 1027.0 |
| 20260501224841 | 8 | 165 | 4.8 | 4.8 | 0.00 | 0.00 | 0.00 | 70 | 1027.0 |
| 20260501223341 | 8 | 165 | 4.8 | 4.8 | 0.00 | 0.00 | 0.00 | 70 | 1027.0 |
| 20260501221841 | 10 | 159 | 4.8 | 4.8 | 0.00 | 0.00 | 0.00 | 63 | 1027.0 |
| 20260501220340 | 10 | 159 | 4.8 | 4.8 | 0.00 | 0.00 | 0.00 | 67 | 1027.0 |
| 20260501214840 | 10 | 159 | 4.8 | 4.8 | 0.00 | 0.00 | 0.00 | 67 | 1027.0 |
| 20260501213340 | 10 | 159 | 4.8 | 4.8 | 0.00 | 0.00 | 0.00 | 66 | 1027.0 |
| 20260501211839 | 11 | 146 | 4.8 | 4.8 | 0.00 | 0.00 | 0.00 | 59 | 1026.0 |
| 20260501210339 | 11 | 146 | 4.8 | 4.8 | 0.00 | 0.00 | 0.00 | 64 | 1027.0 |
| 20260501204839 | 11 | 146 | 4.8 | 4.8 | 0.00 | 0.00 | 0.00 | 64 | 1027.0 |
| 20260501203338 | 11 | 146 | 4.8 | 4.8 | 0.00 | 0.00 | 0.00 | 64 | 1027.0 |
| 20260501201838 | 12 | 126 | 3.2 | 4.8 | 0.00 | 0.00 | 0.00 | 53 | 1026.0 |
| 20260501200338 | 12 | 126 | 3.2 | 4.8 | 0.00 | 0.00 | 0.00 | 59 | 1026.0 |